星链-11697 (STARLINK-11697)

导读 | 豆包AI

STARLINK-11697是美国太空探索技术公司SpaceX星链星座的一颗卫星,于2025年4月13日发射升空,属于Starlink Gen2系列,该系列卫星依托可重复使用运载火箭发射,旨在为全球提供高速低延迟卫星互联网服务。该卫星运行在近地轨道,是星链大规模组网进程中补充的节点,进一步扩展星链网络的全球覆盖能力。

基本信息
目录编号:
63553
目录名称:
STARLINK-11697
国际标识:
2025-075F
轨道中心:
EARTH
卫星名称:
星链-11697
卫星全名:
星链-11697 (STARLINK-11697)
卫星状态:
在轨 (已飞行384 天)
发射日期:
2025-04-13 UTC
国别 :
美国 (US)
星等 :
--
轨道信息
数据来源 国际轨道数据
星历时间: 2026-05-01T21:03:58+0800
21小时前
查看轨道信息
半长轴: 6734.504km
偏心率: 0.0002205
轨道倾角: 43.002°
近地点辐角 267.543°
升交点赤经 194.998°
平近点角 92.519°
近地点: 354.882km
远地点: 357.852km
周期: 91.668分钟
每日圈数: 15.708851
详细信息
固有亮度:
5
最大亮度:
2.5
卫星平台:
Starlink V1.0
覆盖范围:
全球
运营商:
太空探索技术公司
运营商所在国:
美国
制造商(研发单位):
太空探索技术公司
制造商所在国:
美国
使用方式:
暂无
卫星简介
Starlink 计划是 SpaceX 推出的全球卫星互联网项目,通过发射低轨道卫星,为全球尤其是偏远地区提供高速、低延迟的互联网服务。自 2019 年起,Starlink 已部署数千颗卫星,旨在缩小全球数字鸿沟,推动互联网普及。该项目还为军事、航空等行业提供通信支持,带来广泛经济效益。
2D轨道图
3D轨道图
轨道高度分析图
轨道倾角分析图
轨道综合分析图
查看轨道综合分析图